Location: Unspecified
(0.0000°N, 0.0000°E)
Time: 14:44:42
(UTC+00:00)

NAPA-2 - Pass Details

Date: 21 February 2026
Orbit: 356 x 361 km, 97.7° (Epoch: 6 March)

Event Time Altitude Azimuth Distance (km) Brightness Sun altitude
Rises 04:59:01 0° 133° (SE) 2,178 ? -18.3°
Reaches altitude 10° 05:02:46 10° 81° (E) 1,326 ? -17.4°
Maximum altitude 05:02:51 10° 79° (E) 1,325 ? -17.4°
Drops below altitude 10° 05:02:57 10° 77° (ENE) 1,325 ? -17.4°
Sets 05:06:40 0° 24° (NNE) 2,162 ? -16.5°
